User: anonymous   Login
Location: Copper Breaks State Park
(34.1132°N, 99.7492°W)
Time: 08:20:47
(UTC-06:00)
Language:

SL-16 R/B - Orbit

View from above orbital plane
View from above orbital plane
View from above satellite
View from above satellite

Ground track
Ground track

The orbit data is extracted from the following two-line orbital elements,

1 27006U 01056F   16341.47871088 -.00000049  00000-0 -70006-5 0  9998
2 27006  99.2844 122.9044 0015486  92.3119 309.6390 13.70973037750095
Epoch (UTC): 06 December 2016 11:29:20
Eccentricity: 0.0015486
inclination: 99.2844°
perigee height: 984 km
apogee height: 1007 km
right ascension of ascending node: 122.9044°
argument of perigee: 92.3119°
revolutions per day: 13.70973037
mean anomaly at epoch: 309.6390°
orbit number at epoch: 75009

The dashed part of the orbit path shows where the satellite is in the earth's shadow,  

DLR